Location: Berlin
(52.5170°N, 13.4000°E)
Time: 15:51:39
(UTC+02:00)

ISS - Pass Details

Date: 22 July 2018
Orbit: 402 x 408 km, 51.6° (Epoch: 21 July)

Event Time Altitude Azimuth Distance (km) Brightness Sun altitude
Rises 00:29:44 0° 264° (W) 2,324 0.1 -16.5°
Reaches altitude 10° 00:31:49 10° 263° (W) 1,466 -1.0 -16.6°
Maximum altitude 00:35:05 77° 178° (S) 421 -4.0 -16.7°
Drops below altitude 10° 00:38:23 10° 91° (E) 1,470 -1.1 -16.8°
Sets 00:40:28 0° 90° (E) 2,331 -0.1 -16.8°
